owner,sensor,date,latitude,longitude,air_pressure(mBar),qcFlag 
TABS,ioos:station:wmo:42044:1,2003-02-01T00:09:00Z,26.1914,-97.0507,1023.21,11111222 
TABS,ioos:station:wmo:42044:1,2003-02-01T00:39:00Z,26.1914,-97.0507,1023.34,11111222 
TABS,ioos:station:wmo:42044:1,2003-02-01T01:09:00Z,26.1914,-97.0507,1023.41,11111222 
TABS,ioos:station:wmo:42044:1,2003-02-01T01:39:00Z,26.1914,-97.0507,1023.85,11111222 
TABS,ioos:station:wmo:42044:1,2003-02-01T02:09:00Z,26.1914,-97.0507,1024.1,11111222 
TABS,ioos:station:wmo:42044:1,2003-02-01T02:39:00Z,26.1914,-97.0507,1024.36,11111222 
TABS,ioos:station:wmo:42044:1,2003-02-01T03:09:00Z,26.1914,-97.0507,1024.55,11111222 
TABS,ioos:station:wmo:42044:1,2003-02-01T03:39:00Z,26.1914,-97.0507,1024.67,11111222 
TABS,ioos:station:wmo:42044:1,2003-02-01T04:09:00Z,26.1914,-97.0507,1024.87,11111222 
TABS,ioos:station:wmo:42044:1,2003-02-01T04:39:00Z,26.1914,-97.0507,1024.87,11111222 
TABS,ioos:station:wmo:42044:1,2003-02-01T05:09:00Z,26.1914,-97.0507,1024.93,11111222 
TABS,ioos:station:wmo:42044:1,2003-02-01T05:39:00Z,26.1914,-97.0507,1024.99,11111222 
TABS,ioos:station:wmo:42044:1,2003-02-01T06:09:00Z,26.1914,-97.0507,1024.93,11111222 
TABS,ioos:station:wmo:42044:1,2003-02-01T07:09:00Z,26.1914,-97.0507,1024.61,11111222 
TABS,ioos:station:wmo:42044:1,2003-02-01T07:39:00Z,26.1914,-97.0507,1024.48,11111222 
TABS,ioos:station:wmo:42044:1,2003-02-01T08:09:00Z,26.1914,-97.0507,1024.67,11111222 
TABS,ioos:station:wmo:42044:1,2003-02-01T08:39:00Z,26.1914,-97.0507,1024.61,11111222 
TABS,ioos:station:wmo:42044:1,2003-02-01T09:09:00Z,26.1914,-97.0507,1024.42,11111222 
TABS,ioos:station:wmo:42044:1,2003-02-01T09:39:00Z,26.1914,-97.0507,1024.42,11111222 
TABS,ioos:station:wmo:42044:1,2003-02-01T10:09:00Z,26.1914,-97.0507,1024.61,11111222 
TABS,ioos:station:wmo:42044:1,2003-02-01T10:39:00Z,26.1914,-97.0507,1024.67,11111222 
TABS,ioos:station:wmo:42044:1,2003-02-01T11:09:00Z,26.1914,-97.0507,1024.55,11111222 
TABS,ioos:station:wmo:42044:1,2003-02-01T11:39:00Z,26.1914,-97.0507,1024.55,11111222 
TABS,ioos:station:wmo:42044:1,2003-02-01T12:09:00Z,26.1914,-97.0507,1024.8,11111222 
TABS,ioos:station:wmo:42044:1,2003-02-01T12:39:00Z,26.1914,-97.0507,1025.06,11111222 
TABS,ioos:station:wmo:42044:1,2003-02-01T13:09:00Z,26.1914,-97.0507,1025.37,11111222 
TABS,ioos:station:wmo:42044:1,2003-02-01T13:39:00Z,26.1914,-97.0507,1025.69,11111222 
TABS,ioos:station:wmo:42044:1,2003-02-01T14:09:00Z,26.1914,-97.0507,1026.01,11111222 
TABS,ioos:station:wmo:42044:1,2003-02-01T14:39:00Z,26.1914,-97.0507,1026.26,11111222 
TABS,ioos:station:wmo:42044:1,2003-02-01T15:09:00Z,26.1914,-97.0507,1026.33,11111222 
TABS,ioos:station:wmo:42044:1,2003-02-01T15:39:00Z,26.1914,-97.0507,1026.33,11111222 
TABS,ioos:station:wmo:42044:1,2003-02-01T16:09:00Z,26.1914,-97.0507,1026.58,11111222 
TABS,ioos:station:wmo:42044:1,2003-02-01T16:39:00Z,26.1914,-97.0507,1026.58,11111222 
TABS,ioos:station:wmo:42044:1,2003-02-01T17:09:00Z,26.1914,-97.0507,1026.33,11111222 
TABS,ioos:station:wmo:42044:1,2003-02-01T17:39:00Z,26.1914,-97.0507,1025.94,11111222 
TABS,ioos:station:wmo:42044:1,2003-02-01T18:09:00Z,26.1914,-97.0507,1025.82,11111222 
TABS,ioos:station:wmo:42044:1,2003-02-01T18:39:00Z,26.1914,-97.0507,1025.18,11111222 
TABS,ioos:station:wmo:42044:1,2003-02-01T19:09:00Z,26.1914,-97.0507,1024.48,11111222 
TABS,ioos:station:wmo:42044:1,2003-02-01T19:39:00Z,26.1914,-97.0507,1023.66,11111222 
TABS,ioos:station:wmo:42044:1,2003-02-01T20:09:00Z,26.1914,-97.0507,1023.15,11111222 
TABS,ioos:station:wmo:42044:1,2003-02-01T20:39:00Z,26.1914,-97.0507,1022.96,11111222 
TABS,ioos:station:wmo:42044:1,2003-02-01T21:09:00Z,26.1914,-97.0507,1022.71,11111222 
TABS,ioos:station:wmo:42044:1,2003-02-01T21:39:00Z,26.1914,-97.0507,1022.58,11111222 
TABS,ioos:station:wmo:42044:1,2003-02-01T22:09:00Z,26.1914,-97.0507,1022.45,11111222 
TABS,ioos:station:wmo:42044:1,2003-02-01T22:39:00Z,26.1914,-97.0507,1021.95,11111222 
TABS,ioos:station:wmo:42044:1,2003-02-01T23:09:00Z,26.1914,-97.0507,1021.56,11111222 
TABS,ioos:station:wmo:42044:1,2003-02-01T23:39:00Z,26.1914,-97.0507,1021.31,11111222 
TABS,ioos:station:wmo:42044:1,2003-02-02T00:09:00Z,26.1914,-97.0507,1021.31,11111222 
TABS,ioos:station:wmo:42044:1,2003-02-02T00:39:00Z,26.1914,-97.0507,1021.44,11111222 
TABS,ioos:station:wmo:42044:1,2003-02-02T01:09:00Z,26.1914,-97.0507,1021.44,11111222 
TABS,ioos:station:wmo:42044:1,2003-02-02T01:39:00Z,26.1914,-97.0507,1021.5,11111222 
TABS,ioos:station:wmo:42044:1,2003-02-02T02:09:00Z,26.1914,-97.0507,1021.5,11111222 
TABS,ioos:station:wmo:42044:1,2003-02-02T02:39:00Z,26.1914,-97.0507,1021.56,11111222 
TABS,ioos:station:wmo:42044:1,2003-02-02T03:09:00Z,26.1914,-97.0507,1021.63,11111222 
TABS,ioos:station:wmo:42044:1,2003-02-02T03:39:00Z,26.1914,-97.0507,1021.37,11111222 
TABS,ioos:station:wmo:42044:1,2003-02-02T04:09:00Z,26.1914,-97.0507,1021.18,11111222 
TABS,ioos:station:wmo:42044:1,2003-02-02T04:39:00Z,26.1914,-97.0507,1021.25,11111222 
TABS,ioos:station:wmo:42044:1,2003-02-02T05:09:00Z,26.1914,-97.0507,1021.12,11111222 
TABS,ioos:station:wmo:42044:1,2003-02-02T05:39:00Z,26.1914,-97.0507,1020.8,11111222 
TABS,ioos:station:wmo:42044:1,2003-02-02T06:09:00Z,26.1914,-97.0507,1020.36,11111222 
TABS,ioos:station:wmo:42044:1,2003-02-02T06:39:00Z,26.1914,-97.0507,1019.91,11111222 
TABS,ioos:station:wmo:42044:1,2003-02-02T07:09:00Z,26.1914,-97.0507,1019.66,11111222 
TABS,ioos:station:wmo:42044:1,2003-02-02T07:39:00Z,26.1914,-97.0507,1019.28,11111222 
TABS,ioos:station:wmo:42044:1,2003-02-02T08:09:00Z,26.1914,-97.0507,1018.96,11111222 
TABS,ioos:station:wmo:42044:1,2003-02-02T08:39:00Z,26.1914,-97.0507,1018.83,11111222 
TABS,ioos:station:wmo:42044:1,2003-02-02T09:09:00Z,26.1914,-97.0507,1018.71,11111222 
TABS,ioos:station:wmo:42044:1,2003-02-02T09:39:00Z,26.1914,-97.0507,1018.33,11111222 
TABS,ioos:station:wmo:42044:1,2003-02-02T10:09:00Z,26.1914,-97.0507,1018.14,11111222 
TABS,ioos:station:wmo:42044:1,2003-02-02T10:39:00Z,26.1914,-97.0507,1018.07,11111222 
TABS,ioos:station:wmo:42044:1,2003-02-02T11:09:00Z,26.1914,-97.0507,1017.82,11111222 
TABS,ioos:station:wmo:42044:1,2003-02-02T11:39:00Z,26.1914,-97.0507,1017.82,11111222 
TABS,ioos:station:wmo:42044:1,2003-02-02T12:09:00Z,26.1914,-97.0507,1017.82,11111222 
TABS,ioos:station:wmo:42044:1,2003-02-02T12:39:00Z,26.1914,-97.0507,1017.76,11111222 
TABS,ioos:station:wmo:42044:1,2003-02-02T13:09:00Z,26.1914,-97.0507,1017.76,11111222 
TABS,ioos:station:wmo:42044:1,2003-02-02T13:39:00Z,26.1914,-97.0507,1017.88,11111222 
TABS,ioos:station:wmo:42044:1,2003-02-02T14:09:00Z,26.1914,-97.0507,1017.95,11111222 
TABS,ioos:station:wmo:42044:1,2003-02-02T14:39:00Z,26.1914,-97.0507,1018.14,11111222 
TABS,ioos:station:wmo:42044:1,2003-02-02T15:09:00Z,26.1914,-97.0507,1018.39,11111222 
TABS,ioos:station:wmo:42044:1,2003-02-02T15:39:00Z,26.1914,-97.0507,1018.58,11111222 
TABS,ioos:station:wmo:42044:1,2003-02-02T16:09:00Z,26.1914,-97.0507,1018.9,11111222 
TABS,ioos:station:wmo:42044:1,2003-02-02T16:39:00Z,26.1914,-97.0507,1018.58,11111222 
TABS,ioos:station:wmo:42044:1,2003-02-02T17:09:00Z,26.1914,-97.0507,1018.33,11111222 
TABS,ioos:station:wmo:42044:1,2003-02-02T17:39:00Z,26.1914,-97.0507,1018.01,11111222 
TABS,ioos:station:wmo:42044:1,2003-02-02T18:09:00Z,26.1914,-97.0507,1017.57,11111222 
TABS,ioos:station:wmo:42044:1,2003-02-02T18:39:00Z,26.1914,-97.0507,1016.68,11111222 
TABS,ioos:station:wmo:42044:1,2003-02-02T19:09:00Z,26.1914,-97.0507,1016.04,11111222 
TABS,ioos:station:wmo:42044:1,2003-02-02T19:39:00Z,26.1914,-97.0507,1015.41,11111222 
TABS,ioos:station:wmo:42044:1,2003-02-02T20:09:00Z,26.1914,-97.0507,1015.03,11111222 
TABS,ioos:station:wmo:42044:1,2003-02-02T20:39:00Z,26.1914,-97.0507,1014.71,11111222 
TABS,ioos:station:wmo:42044:1,2003-02-02T21:09:00Z,26.1914,-97.0507,1014.52,11111222 
TABS,ioos:station:wmo:42044:1,2003-02-02T21:39:00Z,26.1914,-97.0507,1014.2,11111222 
TABS,ioos:station:wmo:42044:1,2003-02-02T22:09:00Z,26.1914,-97.0507,1014.07,11111222 
TABS,ioos:station:wmo:42044:1,2003-02-02T22:39:00Z,26.1914,-97.0507,1013.88,11111222 
TABS,ioos:station:wmo:42044:1,2003-02-02T23:09:00Z,26.1914,-97.0507,1013.88,11111222 
TABS,ioos:station:wmo:42044:1,2003-02-02T23:39:00Z,26.1914,-97.0507,1013.69,11111222 
TABS,ioos:station:wmo:42044:1,2003-02-03T00:09:00Z,26.1914,-97.0507,1013.57,11111222 
TABS,ioos:station:wmo:42044:1,2003-02-03T00:39:00Z,26.1914,-97.0507,1013.69,11111222 
TABS,ioos:station:wmo:42044:1,2003-02-03T01:09:00Z,26.1914,-97.0507,1013.82,11111222 
TABS,ioos:station:wmo:42044:1,2003-02-03T01:39:00Z,26.1914,-97.0507,1014.07,11111222 
TABS,ioos:station:wmo:42044:1,2003-02-03T02:09:00Z,26.1914,-97.0507,1014.58,11111222 
TABS,ioos:station:wmo:42044:1,2003-02-03T02:39:00Z,26.1914,-97.0507,1014.52,11111222 
TABS,ioos:station:wmo:42044:1,2003-02-03T03:09:00Z,26.1914,-97.0507,1014.77,11111222 
TABS,ioos:station:wmo:42044:1,2003-02-03T03:39:00Z,26.1914,-97.0507,1014.96,11111222 
TABS,ioos:station:wmo:42044:1,2003-02-03T04:09:00Z,26.1914,-97.0507,1014.96,11111222 
TABS,ioos:station:wmo:42044:1,2003-02-03T04:39:00Z,26.1914,-97.0507,1015.15,11111222 
TABS,ioos:station:wmo:42044:1,2003-02-03T05:09:00Z,26.1914,-97.0507,1015.15,11111222 
TABS,ioos:station:wmo:42044:1,2003-02-03T05:39:00Z,26.1914,-97.0507,1014.96,11111222 
TABS,ioos:station:wmo:42044:1,2003-02-03T06:09:00Z,26.1914,-97.0507,1014.77,11111222 
TABS,ioos:station:wmo:42044:1,2003-02-03T06:39:00Z,26.1914,-97.0507,1014.58,11111222 
TABS,ioos:station:wmo:42044:1,2003-02-03T07:09:00Z,26.1914,-97.0507,1014.52,11111222 
TABS,ioos:station:wmo:42044:1,2003-02-03T07:39:00Z,26.1914,-97.0507,1015.15,11111222 
TABS,ioos:station:wmo:42044:1,2003-02-03T08:09:00Z,26.1914,-97.0507,1014.33,11111222 
TABS,ioos:station:wmo:42044:1,2003-02-03T08:39:00Z,26.1914,-97.0507,1014.26,11111222 
TABS,ioos:station:wmo:42044:1,2003-02-03T09:09:00Z,26.1914,-97.0507,1014.26,11111222 
TABS,ioos:station:wmo:42044:1,2003-02-03T09:39:00Z,26.1914,-97.0507,1014.46,11111222 
TABS,ioos:station:wmo:42044:1,2003-02-03T10:09:00Z,26.1914,-97.0507,1014.65,11111222 
TABS,ioos:station:wmo:42044:1,2003-02-03T10:39:00Z,26.1914,-97.0507,1014.14,11111222 
TABS,ioos:station:wmo:42044:1,2003-02-03T11:09:00Z,26.1914,-97.0507,1011.92,11111222 
TABS,ioos:station:wmo:42044:1,2003-02-03T11:39:00Z,26.1914,-97.0507,1010.58,11111222 
TABS,ioos:station:wmo:42044:1,2003-02-03T12:09:00Z,26.1914,-97.0507,1010.39,11111222 
TABS,ioos:station:wmo:42044:1,2003-02-03T12:39:00Z,26.1914,-97.0507,1009.63,11111222 
TABS,ioos:station:wmo:42044:1,2003-02-03T13:09:00Z,26.1914,-97.0507,1012.11,11111222 
TABS,ioos:station:wmo:42044:1,2003-02-03T13:39:00Z,26.1914,-97.0507,1012.87,11111222 
TABS,ioos:station:wmo:42044:1,2003-02-03T14:09:00Z,26.1914,-97.0507,1013.0,11111222 
TABS,ioos:station:wmo:42044:1,2003-02-03T14:39:00Z,26.1914,-97.0507,1013.06,11111222 
TABS,ioos:station:wmo:42044:1,2003-02-03T15:09:00Z,26.1914,-97.0507,1013.69,11111222 
TABS,ioos:station:wmo:42044:1,2003-02-03T15:39:00Z,26.1914,-97.0507,1014.07,11111222 
TABS,ioos:station:wmo:42044:1,2003-02-03T16:09:00Z,26.1914,-97.0507,1014.2,11111222 
TABS,ioos:station:wmo:42044:1,2003-02-03T16:39:00Z,26.1914,-97.0507,1014.33,11111222 
TABS,ioos:station:wmo:42044:1,2003-02-03T17:09:00Z,26.1914,-97.0507,1014.33,11111222 
TABS,ioos:station:wmo:42044:1,2003-02-03T17:39:00Z,26.1914,-97.0507,1014.07,11111222 
TABS,ioos:station:wmo:42044:1,2003-02-03T18:09:00Z,26.1914,-97.0507,1013.69,11111222 
TABS,ioos:station:wmo:42044:1,2003-02-03T18:39:00Z,26.1914,-97.0507,1013.06,11111222 
TABS,ioos:station:wmo:42044:1,2003-02-03T19:09:00Z,26.1914,-97.0507,1012.23,11111222 
TABS,ioos:station:wmo:42044:1,2003-02-03T19:39:00Z,26.1914,-97.0507,1011.73,11111222 
TABS,ioos:station:wmo:42044:1,2003-02-03T20:09:00Z,26.1914,-97.0507,1011.47,11111222 
TABS,ioos:station:wmo:42044:1,2003-02-03T20:39:00Z,26.1914,-97.0507,1011.03,11111222 
TABS,ioos:station:wmo:42044:1,2003-02-03T21:09:00Z,26.1914,-97.0507,1010.71,11111222 
TABS,ioos:station:wmo:42044:1,2003-02-03T21:39:00Z,26.1914,-97.0507,1010.65,11111222 
TABS,ioos:station:wmo:42044:1,2003-02-03T22:09:00Z,26.1914,-97.0507,1011.03,11111222 
TABS,ioos:station:wmo:42044:1,2003-02-03T22:39:00Z,26.1914,-97.0507,1011.28,11111222 
TABS,ioos:station:wmo:42044:1,2003-02-03T23:09:00Z,26.1914,-97.0507,1011.79,11111222 
TABS,ioos:station:wmo:42044:1,2003-02-03T23:39:00Z,26.1914,-97.0507,1012.04,11111222 
TABS,ioos:station:wmo:42044:1,2003-02-04T00:09:00Z,26.1914,-97.0507,1012.3,11111222 
TABS,ioos:station:wmo:42044:1,2003-02-04T00:39:00Z,26.1914,-97.0507,1012.8,11111222 
TABS,ioos:station:wmo:42044:1,2003-02-04T01:09:00Z,26.1914,-97.0507,1013.31,11111222 
TABS,ioos:station:wmo:42044:1,2003-02-04T01:39:00Z,26.1914,-97.0507,1014.01,11111222 
TABS,ioos:station:wmo:42044:1,2003-02-04T02:09:00Z,26.1914,-97.0507,1014.65,11111222 
TABS,ioos:station:wmo:42044:1,2003-02-04T02:39:00Z,26.1914,-97.0507,1015.15,11111222 
TABS,ioos:station:wmo:42044:1,2003-02-04T03:09:00Z,26.1914,-97.0507,1015.6,11111222 
TABS,ioos:station:wmo:42044:1,2003-02-04T03:39:00Z,26.1914,-97.0507,1016.04,11111222 
TABS,ioos:station:wmo:42044:1,2003-02-04T04:09:00Z,26.1914,-97.0507,1016.55,11111222 
TABS,ioos:station:wmo:42044:1,2003-02-04T04:39:00Z,26.1914,-97.0507,1016.87,11111222 
TABS,ioos:station:wmo:42044:1,2003-02-04T05:09:00Z,26.1914,-97.0507,1016.93,11111222 
TABS,ioos:station:wmo:42044:1,2003-02-04T05:39:00Z,26.1914,-97.0507,1016.8,11111222 
TABS,ioos:station:wmo:42044:1,2003-02-04T06:09:00Z,26.1914,-97.0507,1017.18,11111222 
TABS,ioos:station:wmo:42044:1,2003-02-04T06:39:00Z,26.1914,-97.0507,1017.82,11111222 
TABS,ioos:station:wmo:42044:1,2003-02-04T07:09:00Z,26.1914,-97.0507,1018.39,11111222 
TABS,ioos:station:wmo:42044:1,2003-02-04T07:39:00Z,26.1914,-97.0507,1019.28,11111222 
TABS,ioos:station:wmo:42044:1,2003-02-04T08:09:00Z,26.1914,-97.0507,1019.79,11111222 
TABS,ioos:station:wmo:42044:1,2003-02-04T08:39:00Z,26.1914,-97.0507,1020.29,11111222 
TABS,ioos:station:wmo:42044:1,2003-02-04T09:09:00Z,26.1914,-97.0507,1020.23,11111222 
TABS,ioos:station:wmo:42044:1,2003-02-04T09:39:00Z,26.1914,-97.0507,1020.49,11111222 
TABS,ioos:station:wmo:42044:1,2003-02-04T10:09:00Z,26.1914,-97.0507,1020.49,11111222 
TABS,ioos:station:wmo:42044:1,2003-02-04T10:39:00Z,26.1914,-97.0507,1020.93,11111222 
TABS,ioos:station:wmo:42044:1,2003-02-04T11:09:00Z,26.1914,-97.0507,1021.37,11111222 
TABS,ioos:station:wmo:42044:1,2003-02-04T11:39:00Z,26.1914,-97.0507,1021.75,11111222 
TABS,ioos:station:wmo:42044:1,2003-02-04T12:09:00Z,26.1914,-97.0507,1021.75,11111222 
TABS,ioos:station:wmo:42044:1,2003-02-04T12:39:00Z,26.1914,-97.0507,1021.95,11111222 
TABS,ioos:station:wmo:42044:1,2003-02-04T13:09:00Z,26.1914,-97.0507,1023.28,11111222 
TABS,ioos:station:wmo:42044:1,2003-02-04T13:39:00Z,26.1914,-97.0507,1024.1,11111222 
TABS,ioos:station:wmo:42044:1,2003-02-04T14:09:00Z,26.1914,-97.0507,1024.17,11111222 
TABS,ioos:station:wmo:42044:1,2003-02-04T14:39:00Z,26.1914,-97.0507,1024.17,11111222 
TABS,ioos:station:wmo:42044:1,2003-02-04T15:09:00Z,26.1914,-97.0507,1023.98,11111222 
TABS,ioos:station:wmo:42044:1,2003-02-04T15:39:00Z,26.1914,-97.0507,1024.23,11111222 
TABS,ioos:station:wmo:42044:1,2003-02-04T16:09:00Z,26.1914,-97.0507,1025.12,11111222 
TABS,ioos:station:wmo:42044:1,2003-02-04T16:39:00Z,26.1914,-97.0507,1025.25,11111222 
TABS,ioos:station:wmo:42044:1,2003-02-04T17:09:00Z,26.1914,-97.0507,1025.25,11111222 
TABS,ioos:station:wmo:42044:1,2003-02-04T17:39:00Z,26.1914,-97.0507,1025.06,11111222 
TABS,ioos:station:wmo:42044:1,2003-02-04T18:09:00Z,26.1914,-97.0507,1024.93,11111222 
TABS,ioos:station:wmo:42044:1,2003-02-04T18:39:00Z,26.1914,-97.0507,1024.55,11111222 
TABS,ioos:station:wmo:42044:1,2003-02-04T19:09:00Z,26.1914,-97.0507,1023.85,11111222 
TABS,ioos:station:wmo:42044:1,2003-02-04T19:39:00Z,26.1914,-97.0507,1023.34,11111222 
TABS,ioos:station:wmo:42044:1,2003-02-04T20:09:00Z,26.1914,-97.0507,1022.77,11111222 
TABS,ioos:station:wmo:42044:1,2003-02-04T20:39:00Z,26.1914,-97.0507,1022.64,11111222 
TABS,ioos:station:wmo:42044:1,2003-02-04T21:09:00Z,26.1914,-97.0507,1022.96,11111222 
TABS,ioos:station:wmo:42044:1,2003-02-04T21:39:00Z,26.1914,-97.0507,1022.14,11111222 
TABS,ioos:station:wmo:42044:1,2003-02-04T22:09:00Z,26.1914,-97.0507,1022.14,11111222 
TABS,ioos:station:wmo:42044:1,2003-02-04T22:39:00Z,26.1914,-97.0507,1022.07,11111222 
TABS,ioos:station:wmo:42044:1,2003-02-04T23:09:00Z,26.1914,-97.0507,1021.95,11111222 
TABS,ioos:station:wmo:42044:1,2003-02-04T23:39:00Z,26.1914,-97.0507,1022.07,11111222 
TABS,ioos:station:wmo:42044:1,2003-02-05T00:09:00Z,26.1914,-97.0507,1021.63,11111222 
TABS,ioos:station:wmo:42044:1,2003-02-05T00:39:00Z,26.1914,-97.0507,1021.63,11111222 
TABS,ioos:station:wmo:42044:1,2003-02-05T01:09:00Z,26.1914,-97.0507,1021.69,11111222 
TABS,ioos:station:wmo:42044:1,2003-02-05T01:39:00Z,26.1914,-97.0507,1022.01,11111222 
TABS,ioos:station:wmo:42044:1,2003-02-05T02:09:00Z,26.1914,-97.0507,1022.2,11111222 
TABS,ioos:station:wmo:42044:1,2003-02-05T02:39:00Z,26.1914,-97.0507,1022.45,11111222 
TABS,ioos:station:wmo:42044:1,2003-02-05T03:09:00Z,26.1914,-97.0507,1022.71,11111222 
TABS,ioos:station:wmo:42044:1,2003-02-05T03:39:00Z,26.1914,-97.0507,1022.77,11111222 
TABS,ioos:station:wmo:42044:1,2003-02-05T04:09:00Z,26.1914,-97.0507,1022.64,11111222 
TABS,ioos:station:wmo:42044:1,2003-02-05T04:39:00Z,26.1914,-97.0507,1022.45,11111222 
TABS,ioos:station:wmo:42044:1,2003-02-05T05:09:00Z,26.1914,-97.0507,1022.01,11111222 
TABS,ioos:station:wmo:42044:1,2003-02-05T05:39:00Z,26.1914,-97.0507,1021.69,11111222 
TABS,ioos:station:wmo:42044:1,2003-02-05T06:09:00Z,26.1914,-97.0507,1021.82,11111222 
TABS,ioos:station:wmo:42044:1,2003-02-05T06:39:00Z,26.1914,-97.0507,1021.56,11111222 
TABS,ioos:station:wmo:42044:1,2003-02-05T07:09:00Z,26.1914,-97.0507,1021.12,11111222 
TABS,ioos:station:wmo:42044:1,2003-02-05T07:39:00Z,26.1914,-97.0507,1020.87,11111222 
TABS,ioos:station:wmo:42044:1,2003-02-05T08:09:00Z,26.1914,-97.0507,1020.36,11111222 
TABS,ioos:station:wmo:42044:1,2003-02-05T08:39:00Z,26.1914,-97.0507,1019.98,11111222 
TABS,ioos:station:wmo:42044:1,2003-02-05T09:09:00Z,26.1914,-97.0507,1019.66,11111222 
TABS,ioos:station:wmo:42044:1,2003-02-05T09:39:00Z,26.1914,-97.0507,1019.15,11111222 
TABS,ioos:station:wmo:42044:1,2003-02-05T10:09:00Z,26.1914,-97.0507,1018.96,11111222 
TABS,ioos:station:wmo:42044:1,2003-02-05T10:39:00Z,26.1914,-97.0507,1018.77,11111222 
TABS,ioos:station:wmo:42044:1,2003-02-05T11:09:00Z,26.1914,-97.0507,1018.64,11111222 
TABS,ioos:station:wmo:42044:1,2003-02-05T11:39:00Z,26.1914,-97.0507,1018.77,11111222 
TABS,ioos:station:wmo:42044:1,2003-02-05T12:09:00Z,26.1914,-97.0507,1018.2,11111222 
TABS,ioos:station:wmo:42044:1,2003-02-05T12:39:00Z,26.1914,-97.0507,1018.39,11111222 
TABS,ioos:station:wmo:42044:1,2003-02-05T13:09:00Z,26.1914,-97.0507,1017.82,11111222 
TABS,ioos:station:wmo:42044:1,2003-02-05T13:39:00Z,26.1914,-97.0507,1018.26,11111222 
TABS,ioos:station:wmo:42044:1,2003-02-05T14:09:00Z,26.1914,-97.0507,1018.52,11111222 
TABS,ioos:station:wmo:42044:1,2003-02-05T14:39:00Z,26.1914,-97.0507,1018.2,11111222 
TABS,ioos:station:wmo:42044:1,2003-02-05T15:09:00Z,26.1914,-97.0507,1018.77,11111222 
TABS,ioos:station:wmo:42044:1,2003-02-05T15:39:00Z,26.1914,-97.0507,1019.09,11111222 
TABS,ioos:station:wmo:42044:1,2003-02-05T16:09:00Z,26.1914,-97.0507,1019.28,11111222 
TABS,ioos:station:wmo:42044:1,2003-02-05T16:39:00Z,26.1914,-97.0507,1018.9,11111222 
TABS,ioos:station:wmo:42044:1,2003-02-05T17:09:00Z,26.1914,-97.0507,1018.58,11111222 
TABS,ioos:station:wmo:42044:1,2003-02-05T17:39:00Z,26.1914,-97.0507,1019.03,11111222 
TABS,ioos:station:wmo:42044:1,2003-02-05T18:09:00Z,26.1914,-97.0507,1018.33,11111222 
TABS,ioos:station:wmo:42044:1,2003-02-05T18:39:00Z,26.1914,-97.0507,1018.01,11111222 
TABS,ioos:station:wmo:42044:1,2003-02-05T19:09:00Z,26.1914,-97.0507,1017.37,11111222 
TABS,ioos:station:wmo:42044:1,2003-02-05T19:39:00Z,26.1914,-97.0507,1016.23,11111222 
TABS,ioos:station:wmo:42044:1,2003-02-05T20:09:00Z,26.1914,-97.0507,1016.11,11111222 
TABS,ioos:station:wmo:42044:1,2003-02-05T20:39:00Z,26.1914,-97.0507,1015.53,11111222 
TABS,ioos:station:wmo:42044:1,2003-02-05T21:09:00Z,26.1914,-97.0507,1014.9,11111222 
TABS,ioos:station:wmo:42044:1,2003-02-05T21:39:00Z,26.1914,-97.0507,1014.84,11111222 
TABS,ioos:station:wmo:42044:1,2003-02-05T22:09:00Z,26.1914,-97.0507,1014.9,11111222 
TABS,ioos:station:wmo:42044:1,2003-02-05T22:39:00Z,26.1914,-97.0507,1014.96,11111222 
TABS,ioos:station:wmo:42044:1,2003-02-05T23:09:00Z,26.1914,-97.0507,1015.03,11111222 
TABS,ioos:station:wmo:42044:1,2003-02-05T23:39:00Z,26.1914,-97.0507,1015.15,11111222 
TABS,ioos:station:wmo:42044:1,2003-02-06T00:09:00Z,26.1914,-97.0507,1014.84,11111222 
TABS,ioos:station:wmo:42044:1,2003-02-06T00:39:00Z,26.1914,-97.0507,1014.9,11111222 
TABS,ioos:station:wmo:42044:1,2003-02-06T01:09:00Z,26.1914,-97.0507,1015.03,11111222 
TABS,ioos:station:wmo:42044:1,2003-02-06T01:39:00Z,26.1914,-97.0507,1014.71,11111222 
TABS,ioos:station:wmo:42044:1,2003-02-06T02:09:00Z,26.1914,-97.0507,1014.2,11111222 
TABS,ioos:station:wmo:42044:1,2003-02-06T02:39:00Z,26.1914,-97.0507,1014.52,11111222 
TABS,ioos:station:wmo:42044:1,2003-02-06T03:09:00Z,26.1914,-97.0507,1015.09,11111222 
TABS,ioos:station:wmo:42044:1,2003-02-06T03:39:00Z,26.1914,-97.0507,1015.15,11111222 
TABS,ioos:station:wmo:42044:1,2003-02-06T04:09:00Z,26.1914,-97.0507,1014.77,11111222 
TABS,ioos:station:wmo:42044:1,2003-02-06T04:39:00Z,26.1914,-97.0507,1014.65,11111222 
TABS,ioos:station:wmo:42044:1,2003-02-06T05:09:00Z,26.1914,-97.0507,1015.15,11111222 
TABS,ioos:station:wmo:42044:1,2003-02-06T05:39:00Z,26.1914,-97.0507,1015.28,11111222 
TABS,ioos:station:wmo:42044:1,2003-02-06T06:09:00Z,26.1914,-97.0507,1015.15,11111222 
TABS,ioos:station:wmo:42044:1,2003-02-06T06:39:00Z,26.1914,-97.0507,1014.96,11111222 
TABS,ioos:station:wmo:42044:1,2003-02-06T07:09:00Z,26.1914,-97.0507,1014.46,11111222 
TABS,ioos:station:wmo:42044:1,2003-02-06T07:39:00Z,26.1914,-97.0507,1014.2,11111222 
TABS,ioos:station:wmo:42044:1,2003-02-06T08:09:00Z,26.1914,-97.0507,1013.95,11111222 
TABS,ioos:station:wmo:42044:1,2003-02-06T08:39:00Z,26.1914,-97.0507,1013.31,11111222 
TABS,ioos:station:wmo:42044:1,2003-02-06T09:09:00Z,26.1914,-97.0507,1011.98,11111222 
TABS,ioos:station:wmo:42044:1,2003-02-06T09:39:00Z,26.1914,-97.0507,1012.17,11111222 
TABS,ioos:station:wmo:42044:1,2003-02-06T10:09:00Z,26.1914,-97.0507,1012.11,11111222 
TABS,ioos:station:wmo:42044:1,2003-02-06T10:39:00Z,26.1914,-97.0507,1012.11,11111222 
TABS,ioos:station:wmo:42044:1,2003-02-06T11:09:00Z,26.1914,-97.0507,1012.68,11111222 
TABS,ioos:station:wmo:42044:1,2003-02-06T11:39:00Z,26.1914,-97.0507,1012.49,11111222 
TABS,ioos:station:wmo:42044:1,2003-02-06T12:09:00Z,26.1914,-97.0507,1012.17,11111222 
TABS,ioos:station:wmo:42044:1,2003-02-06T12:39:00Z,26.1914,-97.0507,1012.23,11111222 
TABS,ioos:station:wmo:42044:1,2003-02-06T13:09:00Z,26.1914,-97.0507,1012.42,11111222 
TABS,ioos:station:wmo:42044:1,2003-02-06T13:39:00Z,26.1914,-97.0507,1012.68,11111222 
TABS,ioos:station:wmo:42044:1,2003-02-06T14:09:00Z,26.1914,-97.0507,1013.12,11111222 
TABS,ioos:station:wmo:42044:1,2003-02-06T14:39:00Z,26.1914,-97.0507,1013.63,11111222 
TABS,ioos:station:wmo:42044:1,2003-02-06T15:09:00Z,26.1914,-97.0507,1014.14,11111222 
TABS,ioos:station:wmo:42044:1,2003-02-06T15:39:00Z,26.1914,-97.0507,1014.77,11111222 
TABS,ioos:station:wmo:42044:1,2003-02-06T16:09:00Z,26.1914,-97.0507,1015.15,11111222 
TABS,ioos:station:wmo:42044:1,2003-02-06T16:39:00Z,26.1914,-97.0507,1015.6,11111222 
TABS,ioos:station:wmo:42044:1,2003-02-06T17:09:00Z,26.1914,-97.0507,1015.6,11111222 
TABS,ioos:station:wmo:42044:1,2003-02-06T17:39:00Z,26.1914,-97.0507,1015.22,11111222 
TABS,ioos:station:wmo:42044:1,2003-02-06T18:09:00Z,26.1914,-97.0507,1015.28,11111222 
TABS,ioos:station:wmo:42044:1,2003-02-06T18:39:00Z,26.1914,-97.0507,1015.28,11111222 
TABS,ioos:station:wmo:42044:1,2003-02-06T19:09:00Z,26.1914,-97.0507,1014.52,11111222 